Garrison, ND

10:29 AM CDT on April 27, 2017 (GMT -0500)
Garrison

Weather History for KN60 - December, 2012

Change the Weather History Date:

Tuesday, December 25, 2012

  Actual Average Record
Temperature  
Mean Temperature 3 °F -  
Max Temperature 4 °F - 42 °F (2011)
Min Temperature 2 °F - -27 °F (1996)
Degree Days  
Heating Degree Days 62    
Month to date heating degree days 1232  
Cooling Degree Days 0    
Moisture  
Dew Point -2 °F    
Average Humidity 80    
Maximum Humidity 87    
Minimum Humidity 72    
Precipitation  
Precipitation 0.02 in - 1.47 in (2016)
Month to date precipitation 0.80  
Year to date precipitation 16.87  
Sea Level Pressure  
Sea Level Pressure 30.51 in    
Wind  
Wind Speed 6 mph (NW)    
Max Wind Speed 13 mph    
Max Gust Speed 15 mph    
T = Trace of Precipitation, MM = Missing Value Source: NWS Daily Summary

Daily Weather History Graph

Daily Weather History Graph

Search for Another Location

Airport or City:

Trip Planner

Search our weather history database for the weather conditions in past years. The results will help you decide how hot, cold, wet, or windy it might be!

Date:

Astronomy

Dec. 25, 2012 Rise Set
Actual Time 8:33 AM CST 4:59 PM CST
Civil Twilight 7:57 AM CST 5:35 PM CST
Nautical Twilight 7:17 AM CST 6:14 PM CST
Astronomical Twilight 6:40 AM CST 6:52 PM CST
Moon 3:11 PM CST (12/25) 6:03 AM CST (12/25)
Length of Visible Light 9h 38m
Length of Day
8h 26m
Waxing Gibbous, 94% of the Moon is Illuminated
Dec 25
Waxing Gibbous
Dec 28
Full
Jan 4
Last Quarter
Jan 11
New
Jan 18
First Quarter

Hourly Weather History & Observations

Time (CST) Temp. Windchill Dew Point Humidity Pressure Visibility Wind Dir Wind Speed Gust Speed Precip Events Conditions
12:52 AM 3.9 °F -11.3 °F -2.0 °F 76% 30.52 in - NW 10.4 mph - N/A   Unknown
1:52 AM 3.9 °F -11.3 °F -2.0 °F 76% 30.52 in - NW 10.4 mph - N/A   Unknown
2:52 AM 3.9 °F -10.4 °F -2.0 °F 76% 30.53 in - NW 9.2 mph - N/A   Unknown
3:52 AM 3.9 °F -8.2 °F -0.9 °F 80% 30.55 in - WNW 6.9 mph - N/A   Unknown
4:52 AM 3.9 °F -8.2 °F -0.9 °F 80% 30.56 in - NW 6.9 mph - N/A   Unknown
5:52 AM 3.9 °F -5.3 °F -2.0 °F 76% 30.57 in - NNW 4.6 mph - N/A   Unknown
6:52 AM 3.0 °F -8.0 °F -2.9 °F 76% 30.58 in - NNW 5.8 mph - N/A   Unknown
7:52 AM 1.9 °F -9.2 °F -2.9 °F 80% 30.58 in - NNW 5.8 mph - N/A   Unknown
8:52 AM 1.9 °F -7.6 °F -4.0 °F 76% 30.58 in - NW 4.6 mph - N/A   Unknown
9:52 AM 1.9 °F -10.6 °F -4.0 °F 76% 30.58 in - NW 6.9 mph - N/A   Unknown
10:52 AM 3.0 °F -9.3 °F -4.0 °F 73% 30.58 in - WNW 6.9 mph - N/A   Unknown
11:52 AM 3.9 °F -6.9 °F -2.0 °F 76% 30.56 in - West 5.8 mph - N/A   Unknown
12:52 PM 3.0 °F -9.3 °F -2.9 °F 76% 30.54 in - West 6.9 mph - N/A   Unknown
1:52 PM 3.0 °F -8.0 °F -2.9 °F 76% 30.51 in - NW 5.8 mph - N/A   Unknown
2:52 PM 3.9 °F -3.4 °F -2.0 °F 76% 30.49 in - West 3.5 mph - N/A   Unknown
3:52 PM 3.9 °F - -0.9 °F 80% 30.49 in - Calm Calm - N/A   Unknown
4:52 PM 3.9 °F - -0.0 °F 84% 30.48 in - Calm Calm - N/A   Unknown
5:52 PM 3.9 °F - -0.0 °F 84% 30.48 in - Calm Calm - 0.01 in   Unknown
6:52 PM 3.9 °F - -0.0 °F 84% 30.47 in - Calm Calm - 0.02 in   Unknown
7:52 PM 3.9 °F - -0.0 °F 84% 30.47 in - Calm Calm - 0.01 in   Unknown
8:52 PM 3.9 °F - 1.0 °F 88% 30.46 in - Calm Calm - 0.01 in   Unknown
9:52 PM 3.9 °F - -0.0 °F 84% 30.43 in - Calm Calm - 0.01 in   Unknown
10:52 PM 1.9 °F -5.6 °F -0.9 °F 88% 30.43 in - East 3.5 mph - N/A   Unknown
11:52 PM 1.9 °F -7.6 °F -2.0 °F 83% 30.40 in - East 4.6 mph - N/A   Unknown